Regional Weather Roundup
Issued by NWS Bismarck, ND

Home | Current Version | Previous Version | Text Only | Print | Product List | Glossary On
Versions: 1 2 3 4 5 6 7 8 9 10 11 12 13 14 15 16 17 18 19 20 21 22 23 24 25 26 27 28 29 30 31 32 33 34 35 36 37 38 39 40 41 42 43 44 45 46 47 48 49 50
000
ASUS43 KBIS 290159
RWRBIS

NWR BROADCAST TEXT
NATIONAL WEATHER SERVICE BISMARCK ND
800 PM CST SUN DEC 28 2014

NOTE: "FAIR" INDICATES FEW OR NO CLOUDS BELOW 12,000 FEET WITH NO
SIGNIFICANT WEATHER AND/OR OBSTRUCTIONS TO VISIBILITY.


CITY           SKY/WX    TMP DP  RH WIND       PRES   REMARKS
WILLISTON      CLOUDY     5  -3  69 N13       30.38R WCI -12
MINOT          MOCLDY    -6 -11  79 NW9       30.39R WCI -23
MINOT AFB      NOT AVBL
BISMARCK       CLOUDY     3  -2  79 NE12      30.36R WCI -13
DICKINSON      LGT SNOW   8   3  80 NE15      30.22R WCI  -9
GARRISON         N/A      1  -4  79 NE10      30.35R WCI -15
HETTINGER ARPT LGT SNOW  12   7  80 NE14      30.19R WCI  -3
JAMESTOWN      NOT AVBL
CARRINGTON     MOCLDY    -4  -8  84 MISG      30.39R
CROSBY         FAIR      -6  -9  84 NW14      30.42R WCI -26
OAKES            N/A      1  -2  85 N16       30.36R WCI -18
$$

CITY           SKY/WX    TMP DP  RH WIND       PRES   REMARKS
GRAND FORKS    CLEAR     -9 -13  83 NW5       30.46R WCI -20
GRAND FORKS AF NOT AVBL
DEVILS LAKE    PTCLDY    -8 -15  71 CALM      30.39R
FARGO          CLEAR     -2  -9  72 N10       30.43R WCI -19
GWINNER        CLEAR      3  -4  72 NE14      30.38R WCI -15
$$

CITY           SKY/WX    TMP DP  RH WIND       PRES   REMARKS
ABERDEEN       MOCLDY     6  -2  69 NE13      30.34R WCI -10
MOBRIDGE       CLOUDY     9   3  77 E9        30.25R WCI  -4
BUFFALO          N/A     17  14  88 NE13      30.05R WCI   4
RAPID CITY     LGT SNOW  18  14  84 NE6       30.08R FOG     WCI  10
GLASGOW        CLOUDY     8  -1  66 NE13      30.37R WCI  -8
SIDNEY         CLOUDY     9   1  72 N13       30.36R WCI  -7
WOLF POINT     CLOUDY     8  -1  66 NE14      30.39R WCI  -8
GLENDIVE       CLOUDY    10   7  85 NE16      30.26R WCI  -7
MILES CITY     LGT SNOW  16  12  84 NE20      30.18R FOG     WCI  -1
BAKER          LGT SNOW  14  10  84 NE15      30.17R FOG     WCI  -1
$$

CITY           SKY/WX    TMP DP  RH WIND       PRES   REMARKS
BILLINGS       LGT SNOW  16  13  88 N14       30.16R FOG     WCI   2
GREAT FALLS    LGT SNOW  10   7  87 N16       30.28R FOG     WCI  -7
$$



USA.gov is the U.S. government's official web portal to all federal, state and local government web resources and services.